Situs Daftar Bandar Dewa Poker 88 Domino Qiu Qiu Ceme Online Asia

Jackpot

Texas Poker Multi Jackpot System

Kini Telah hadir Jackpot SUPER ROYAL FLUSH

Kini Telah hadir Jackpot 2000 (khusus table VIP keatas).

Ikutilah global jackpot yang tersedia di system kami, dengan system jackpot terbaru dan pertama di indonesia, anda dapat membeli jackpot dengan harga 100 rupiah saja dan menangkan hadiahnya hingga puluhan juta rupiah.

Jackpot bukanlah suatu keharusan untuk dibeli, namun kami memberikan suatu fitur tambahan untuk member tercinta dari www.emoqq.net.

Terdapat tiga pilihan harga jackpot yang bisa anda beli yaitu :100,500,1000 dan 2000(khusus table VIP Keatas) rupiah.

Hadiah dari Multi jackpot system www.emoqq.net

  1. full house x 10 harga jackpot yang anda beli.
      (contoh:anda membeli 1000 maka:1000 X10 = 10.000)
  2. four of kind x 250 harga jackpot yang anda beli
      (contoh:anda membeli 1000 maka:1000 X250 = 250.000)
  3. Straight flush x 1200
      (contoh:anda membeli 1000 maka:1000 X1200 = 1.200.000)
  4. Royal flush x 10000 harga jackpot yang anda beli
      (contoh:anda membeli 1000 maka:1000 X10000 = 10.000.000)
  5. SUPER ROYAL FLUSH x 30000 harga jackpot yang anda beli
      (contoh:anda membeli 1000 maka:1000 X30000 = 30.000.000)

Kondisi kartu

  1. full house adalah kondisi kartu dimana kartu anda dan kartu tengah dengan total 7 kartu bisa mendapatkan nilai 5 kartu dengan kombinasi 1 tris(three of kind) dan 1 pair, contoh 3 kartu 10 dan 2 kartu 5
  2. Four of kind adalah kondisi kartu dimana kartu anda dan kartu tengah dengan total 7 kartu bisa mendapatkan nilai 5 kartu dengan kombinasi 4 kartu yang sama jumlah dan 1 kartu apapun juga contoh anda mendapatkan 4 buah kartu angka 3 dan 1 kartu apapun.
  3. Staright flush adalah kondisi kartu dimana kartu anda dan kartu tengah dengan total 7 kartu bisa mendapatkan nilai 5 kartu dengan kombinasi seri / staright dengan kembang yang sama contoh : urutan kartu dari angka 5, 6, 7, 8 , 9 10 dengan kembang yg sama misalnya as hati
  4. Royal flush adalah kondisi kartu dimana kartu anda dan kartu tengah dengan total 7 kartu bisa mendapatkan nilai 5 kartu dengan kombinasi seri / staright dengan kembang yang sama tetapi kartu tersebut haruslah dimulai dari 10. contoh 10, Queen, Jack, King dan aces dengan kembang yang sama
  5. Super Royal flush adalah kondisi kartu dimana Kedua kartu anda digabung dengan 3 kartu pertama meja haruslah royal flush. contoh kartu anda 10,Queen kembang sama dan 3 kartu pertama meja adalah Jack, King dan aces dengan kembang yang sama

Demikian adalah penjelasan dari Multi Jackpot www.emoqq.net terima kasih dan selamat bermain salam hoki dari kami

Texas Poker Jackpot Winner

TOP SUPER ROYAL FLUSH
No.TanggalNamaPriceWin
122/01 14:34ZALFA57Super Royal flush6,000,000
222/01 06:23JUTAWAN28Super Royal flush1,500,000
322/01 05:38MOMS500Super Royal flush3,000,000
422/01 02:23L4T35TSuper Royal flush3,000,000
522/01 01:34BERR7778Super Royal flush6,000,000
TOP ROYAL FLUSH
No.TanggalNamaPriceWin
122/01 14:59ICOON52Royal flush1,000,000
222/01 14:15SUPRAPTO56Royal flush10,000,000
322/01 14:07ROKER11Royal flush5,000,000
422/01 13:58TEST_02Royal flush5,000,000
522/01 13:33BANDBLUERoyal flush5,000,000
TOP STRAIGHT FLUSH
No.TanggalNamaPriceWin
122/01 15:08CH4MP1PKStraight Flush240,000
222/01 15:07HOKIUL3KStraight Flush600,000
322/01 15:06GJKT17Straight Flush240,000
422/01 15:04DICK01Straight Flush600,000
522/01 15:03WHITEOUTStraight Flush240,000
LATEST JACKPOT
No.TanggalNamaPriceWin
122/01 15:09GEBOK98Full House2,000
222/01 15:09YAKUB10Full House1,000
322/01 15:09SUHU_007Full House2,000
422/01 15:09F4F74FFAFull House2,000
522/01 15:09WONGLIYOFull House5,000
622/01 15:09ANDRIIIIIIFour Of A Kind250,000
722/01 15:09E68CCEAEFull House2,000
822/01 15:09C88B6706Full House5,000
922/01 15:09DEMITEMPANFull House2,000
1022/01 15:09YANKEES9Full House10,000
1122/01 15:09WARAKBAEFull House5,000
1222/01 15:09TOOLOONGFull House1,000
1322/01 15:09DAGUL11Full House5,000
1422/01 15:09KIRIK26Full House2,000
1522/01 15:09SUSANTI898Full House5,000
1622/01 15:09CELAKOOOFull House1,000
1722/01 15:09RIYANFERNFull House1,000
1822/01 15:09DAVAWDFull House500
1922/01 15:09KORBUNILFull House10,000
2022/01 15:09HOKIHOKI06Four Of A Kind125,000
2122/01 15:09ROZULFull House5,000
2222/01 15:09FIT27Full House10,000
2322/01 15:09WARNAPUTIHFull House20,000
2422/01 15:09LADIEFO26Full House10,000
2522/01 15:08BES83Full House5,000
2622/01 15:08DADUTKU04Full House20,000
2722/01 15:081IBLIS1Full House5,000
2822/01 15:08NANDAR888Full House5,000
2922/01 15:08FNC1CWFX5DFull House5,000
3022/01 15:08CE305E2CFull House1,000
3122/01 15:08B7984BD4Full House2,000
3222/01 15:08P3ND3K4R86Full House5,000
3322/01 15:08NOKIA99999Full House5,000
3422/01 15:08KAPUYUAK0RFull House10,000
3522/01 15:08FEMEFull House5,000
3622/01 15:08CSFILEFull House5,000
3722/01 15:08AADRBCOC61Full House10,000
3822/01 15:08SAUFI07Full House2,000
3922/01 15:08CH4MP1PKStraight Flush240,000
4022/01 15:08JENGEK55Full House20,000
4122/01 15:08BAMBZZZFull House20,000
4222/01 15:08AAAABORI51Full House2,000
4322/01 15:08JONYGRILFull House20,000
4422/01 15:08VALKASS78Four Of A Kind250,000
4522/01 15:08SEKOTENG80Full House1,000
4622/01 15:08BIGSEX30Full House10,000
4722/01 15:08KOAPIINFull House10,000
4822/01 15:08XBXLUESFull House1,000
4922/01 15:080838131501Full House1,000
5022/01 15:08ANIA85Full House10,000

Domino Multi Jackpot System

Ikutilah global jackpot yang tersedia di system kami, dengan system jackpot terbaru dan pertama di indonesia, anda dapat membeli jackpot dengan harga 100 rupiah saja dan menangkan hadiahnya hingga puluhan juta rupiah.

Jackpot bukanlah suatu keharusan untuk dibeli, namun kami memberikan suatu fitur tambahan untuk member tercinta dari www.emoqq.net.

Terdapat tiga pilihan harga jackpot yang bisa anda beli yaitu :100,500 dan 1000 rupiah.

Hadiah dari Multi jackpot system www.emoqq.net

  1. Murni Kecil x 50 harga jackpot yang anda beli.
      (contoh:anda membeli 1000 maka:1000 X 50 = 50.000)
  2. Murni Besar x 50 harga jackpot yang anda beli
      (contoh:anda membeli 1000 maka:1000 X 50 = 50.000)
  3. BALAK x 100 harga jackpot yang anda beli
      (contoh:anda membeli 1000 maka:1000 X 100 = 100.000)
  4. ENAM DEWA x 6666 harga jackpot yang anda beli
      (contoh:anda membeli 1000 maka:1000 X 6666 = 6.666.000)

Demikian adalah penjelasan dari Multi Jackpot www.emoqq.net terima kasih dan selamat bermain salam hoki dari kami

Domino Jackpot Winner

TOP ENAM DEWA
No.TanggalNamaPriceWin
122/01 14:20YUDA01011murni enam666,600
222/01 14:19MNDAmurni enam666,600
322/01 10:51B5D11murni enam3,333,000
422/01 08:25ROBBY_Kmurni enam6,666,000
522/01 06:34JOKOSU21murni enam6,666,000
TOP BALAK
No.TanggalNamaPriceWin
122/01 15:08RIS744balak100,000
222/01 15:07AMEK192000balak100,000
322/01 14:59ACONG1701balak10,000
422/01 14:57EKO508balak100,000
522/01 14:57RICHAAAAAAbalak50,000
LATEST JACKPOT
No.TanggalNamaPriceWin
122/01 15:09PAIGANTENGmurni kecil50,000
222/01 15:08RIS744balak100,000
322/01 15:07AMEK192000balak100,000
422/01 15:07TUAKBEGU12murni kecil50,000
522/01 15:05CUTZZZmurni kecil5,000
622/01 15:04WHYBANDHIDNTK8murni kecil50,000
722/01 15:03BRIE_WWEmurni besar25,000
822/01 15:03JHONONAR99murni besar50,000
922/01 15:03T4DMETTA98murni kecil5,000
1022/01 15:02WADWZIG77murni kecil50,000
1122/01 15:02MARIPULANGmurni kecil50,000
1222/01 15:02CAKOKBAEmurni kecil25,000
1322/01 15:01BAHIM66murni kecil25,000
1422/01 15:00LASINO23murni besar50,000
1522/01 15:00DENAI88murni kecil50,000
1622/01 15:00YADI2540lucky9910,000
1722/01 15:00VLIHMDUAYmurni kecil50,000
1822/01 14:59ACONG1701balak10,000
1922/01 14:59OT099murni besar50,000
2022/01 14:58ZKN7W08BLNmurni kecil50,000
2122/01 14:57JANCOK48murni kecil25,000
2222/01 14:57EKO508balak100,000
2322/01 14:57RICHAAAAAAbalak50,000
2422/01 14:56JHYmurni besar50,000
2522/01 14:54UGI333murni besar5,000
2622/01 14:54JOKERDUElucky9910,000
2722/01 14:53H4NTUHUT4Nmurni besar50,000
2822/01 14:53JHONONAR99murni kecil50,000
2922/01 14:52LOGPON123balak10,000
3022/01 14:52YANTO222murni besar50,000
3122/01 14:51BEREBUbalak50,000
3222/01 14:51V6RJ0O1EU6murni kecil5,000
3322/01 14:51PAIGANTENGbalak100,000
3422/01 14:51BNT96murni besar25,000
3522/01 14:49EMANEKOKmurni besar50,000
3622/01 14:49LEUNYAI_murni kecil50,000
3722/01 14:49EWAKENAKmurni kecil5,000
3822/01 14:48SONTY11balak50,000
3922/01 14:48EKO508balak100,000
4022/01 14:48AGIEL1608murni besar5,000
4122/01 14:47BERONG22murni kecil5,000
4222/01 14:47XU1YL2QX4Xmurni kecil25,000
4322/01 14:46P3LLY99murni kecil25,000
4422/01 14:46COBRYmurni besar25,000
4522/01 14:46WHYBANDHIDNTK8murni besar50,000
4622/01 14:45O269murni besar25,000
4722/01 14:44NOFA38murni besar5,000
4822/01 14:44LEUNYAI_murni kecil25,000
4922/01 14:44JHYmurni besar50,000
5022/01 14:44O269murni besar25,000

Ceme Multi Jackpot System

Jackpot dilihat dari gabungan kartu pemain dengan kartu bandar. Bandar harus membeli jackpot sebanyak jumlah player yang sedang duduk. Sebagai contoh bila terdapat 3 pemain duduk bermain, dan bandar memutuskan untuk membeli jackpot Rp 1.000, maka pada periode tersebut bandar akan membeli jackpot sebanyak 3xRp1.000 = Rp3.000.

Jackpot bukanlah suatu keharusan untuk dibeli, namun kami memberikan suatu fitur tambahan untuk member tercinta dari www.emoqq.net.

Terdapat tiga pilihan harga jackpot yang bisa anda beli yaitu :100,500 dan 1000 rupiah.

Hadiah dari Multi jackpot system www.emoqq.net

  1. Murni Kecil x 50 harga jackpot yang anda beli.
      (contoh:anda membeli 1000 maka:1000 X 50 = 50.000)
  2. Murni Besar x 50 harga jackpot yang anda beli
      (contoh:anda membeli 1000 maka:1000 X 50 = 50.000)
  3. BALAK x 200 harga jackpot yang anda beli
      (contoh:anda membeli 1000 maka:1000 X 200 = 200.000)
  4. ENAM DEWA x 6666 harga jackpot yang anda beli
      (contoh:anda membeli 1000 maka:1000 X 6666 = 6.666.000)

Demikian adalah penjelasan dari Multi Jackpot www.emoqq.net terima kasih dan selamat bermain salam hoki dari kami

Ceme Jackpot Winner

TOP ENAM DEWA
No.TanggalNamaPriceWin
122/01 15:04RICKIEAJBmurni enam6,666,000
222/01 14:47N4GAA88murni enam6,666,000
322/01 14:44KHAIRIL456murni enam666,600
422/01 14:31BETT13murni enam6,666,000
522/01 14:21NUR9909murni enam6,666,000
TOP BALAK
No.TanggalNamaPriceWin
122/01 15:08BOSDPC1balak100,000
222/01 15:08PENDEKAR05balak200,000
322/01 15:08GWT114balak20,000
422/01 15:08LENCONG101balak200,000
522/01 15:08ARY127balak20,000
LATEST JACKPOT
No.TanggalNamaPriceWin
122/01 15:09ANAS1285murni besar50,000
222/01 15:09NNG1997murni kecil50,000
322/01 15:09BAGAL999murni kecil50,000
422/01 15:08E3C9FC8Bmurni besar50,000
522/01 15:08DOB333Lmurni kecil5,000
622/01 15:08LEPAY9murni besar50,000
722/01 15:08FF7FCA71murni besar50,000
822/01 15:08MANDADEATCmurni besar5,000
922/01 15:08SEBONEEmurni besar5,000
1022/01 15:08BOSDPC1balak100,000
1122/01 15:08PENDEKAR05balak200,000
1222/01 15:08IPAN808murni besar25,000
1322/01 15:08GWT114balak20,000
1422/01 15:08LENCONG101balak200,000
1522/01 15:08ARY127balak20,000
1622/01 15:07UKT9murni kecil25,000
1722/01 15:07NICO019murni kecil50,000
1822/01 15:07JANGKRIKLUmurni kecil5,000
1922/01 15:07POJA98balak100,000
2022/01 15:07ET2F3SK2M2murni kecil25,000
2122/01 15:07AQUUENAmurni kecil50,000
2222/01 15:07ET2F3SK2M2murni kecil25,000
2322/01 15:07F2926580murni kecil50,000
2422/01 15:07YUSUFHADImurni kecil25,000
2522/01 15:07ZEMPOLmurni kecil25,000
2622/01 15:07KAYLACIMOTbalak200,000
2722/01 15:07BOY_991murni kecil50,000
2822/01 15:07TEPHOS02murni besar50,000
2922/01 15:07SIMONE55balak100,000
3022/01 15:07AMELIASISmurni besar5,000
3122/01 15:07YROHK7TYN3balak100,000
3222/01 15:07HOQJPbalak20,000
3322/01 15:07CUNDIL66murni besar50,000
3422/01 15:07ABIMANYU64murni besar50,000
3522/01 15:07RIFKI292murni besar5,000
3622/01 15:07AH131R2TP1murni besar5,000
3722/01 15:06MATMUJIB33murni besar25,000
3822/01 15:06JOELRICOmurni kecil50,000
3922/01 15:06LK4DGARDA86balak200,000
4022/01 15:06BAGAL999murni besar50,000
4122/01 15:06ED7ACD10balak100,000
4222/01 15:06YQ0FOSF5EHmurni kecil5,000
4322/01 15:06NEWRULES66murni kecil5,000
4422/01 15:06KING9Zmurni besar25,000
4522/01 15:06KING9Zmurni besar25,000
4622/01 15:06HAI_01murni besar25,000
4722/01 15:06GITULAGImurni kecil50,000
4822/01 15:06DJAYA114murni kecil5,000
4922/01 15:06F903F34Amurni kecil5,000
5022/01 15:05BA6US15murni besar25,000